This is the latest recevied weather packets stored in our database for station/object W3AJR. If no packets are shown the sender has not sent any weather packets the latest 10 day(s).
| Time | Temp. | Humidity | Pressure | Rain* | Wind** | Luminosity | Snow |
|---|---|---|---|---|---|---|---|
| 1777825705 | 13.33° C | 39% | 1017.2 hPa | 0 mm | - | 766 W/m² | - |
| 1777825403 | 13.33° C | 38% | 1017 hPa | 0 mm | - | 190 W/m² | - |
| 1777825100 | 13.89° C | 37% | 1017.1 hPa | 0 mm | - | 877 W/m² | - |
| 1777824796 | 13.89° C | 38% | 1017.2 hPa | 0 mm | - | 812 W/m² | - |
| 1777824493 | 14.44° C | 36% | 1017.5 hPa | 0 mm | - | 826 W/m² | - |
| 1777824189 | 13.89° C | 41% | 1017.5 hPa | 0 mm | - | 838 W/m² | - |
| 1777823884 | 13.33° C | 40% | 1017.5 hPa | 0 mm | - | 792 W/m² | - |
| 1777823583 | 13.89° C | 40% | 1017.6 hPa | 0 mm | - | 807 W/m² | - |
| 1777823279 | 13.33° C | 41% | 1017.1 hPa | 0 mm | - | 849 W/m² | - |
| 1777822977 | 13.33° C | 39% | 1017.6 hPa | 0 mm | - | 876 W/m² | - |
| 1777822675 | 12.78° C | 41% | 1017.4 hPa | 0 mm | - | 870 W/m² | - |
| 1777822373 | 12.78° C | 38% | 1017.7 hPa | 0 mm | - | 879 W/m² | - |
| 1777822070 | 12.22° C | 39% | 1017.7 hPa | 0 mm | - | 897 W/m² | - |
| 1777821768 | 12.22° C | 40% | 1017.7 hPa | 0 mm | - | 170 W/m² | - |
| 1777821464 | 12.22° C | 40% | 1017.8 hPa | 0 mm | - | 845 W/m² | - |
| 1777821162 | 12.22° C | 41% | 1017.8 hPa | 0 mm | - | 875 W/m² | - |
| 1777820859 | 12.78° C | 43% | 1017.7 hPa | 0 mm | - | 835 W/m² | - |
| 1777820555 | 12.22° C | 41% | 1017.7 hPa | 0 mm | - | 849 W/m² | - |
| 1777820251 | 12.22° C | 41% | 1017.6 hPa | 0 mm | - | 828 W/m² | - |
| 1777819949 | 11.67° C | 42% | 1017.9 hPa | 0 mm | - | 778 W/m² | - |
| 1777819646 | 11.11° C | 43% | 1017.8 hPa | 0 mm | - | 769 W/m² | - |
| 1777819344 | 11.11° C | 43% | 1017.7 hPa | 0 mm | - | 766 W/m² | - |
| 1777819040 | 10.56° C | 44% | 1017.7 hPa | 0 mm | - | 714 W/m² | - |
| 1777818738 | 10° C | 44% | 1017.6 hPa | 0 mm | - | 109 W/m² | - |
| 1777818434 | 10.56° C | 46% | 1017.9 hPa | 0 mm | - | 111 W/m² | - |
* Rain latest hour (hover to see other rain measurements)
** Current wind speed in m/s (hover to see current wind gust speed)